Location: Unspecified
(47.5840°N, 122.3000°W)
Time: 01:50:12
(UTC+00:00)

Cosmos 2058 Rocket - Pass Details

Date: 09 December 2025
Orbit: 603 x 633 km, 82.5° (Epoch: 17 January)

Event Time Altitude Azimuth Distance (km) Brightness Sun altitude
Exits shadow 14:20:15 10° 337° (NNW) 2,020 5.3 -13.7°
Reaches altitude 10° 14:20:16 10° 337° (NNW) 2,011 5.3 -13.7°
Maximum altitude 14:24:26 40° 268° (W) 923 3.5 -13.0°
Drops below altitude 10° 14:28:31 10° 199° (SSW) 1,978 5.7 -12.4°
Sets 14:30:49 0° 192° (SSW) 2,873 6.6 -12.0°
